Salisbury, MD

11:44 AM EDT on August 18, 2017 (GMT -0400)
Salisbury-Ocean City Wicomico Regional

Weather History for KSBY - October, 2011

Change the Weather History Date:

Friday, October 28, 2011

  Actual Average Record
Temperature  
Mean Temperature 46 °F 54 °F  
Max Temperature 50 °F 65 °F 87 °F (2000)
Min Temperature 42 °F 43 °F 25 °F (2001)
Degree Days  
Heating Degree Days 19 12  
Month to date heating degree days 148 229  
Since 1 July heating degree days 164 277  
Cooling Degree Days 0 0  
Month to date cooling degree days 28 22  
Year to date cooling degree days 1716 1147  
Moisture  
Dew Point 35 °F    
Average Humidity 68    
Maximum Humidity 89    
Minimum Humidity 46    
Precipitation  
Precipitation 0.03 in 0.11 in 3.28 in (1960)
Month to date precipitation 1.09 3.13  
Year to date precipitation 34.25 38.18  
Snow  
Snow 0.00 in 0.00 in 0.00 in (2002)
Month to date snowfall 0.0 0.0  
Since 1 July snowfall 0.0 0.0  
Snow Depth 0.00 in    
Sea Level Pressure  
Sea Level Pressure 30.16 in    
Wind  
Wind Speed 8 mph (North)    
Max Wind Speed 16 mph    
Max Gust Speed 22 mph    
Visibility 10 miles    
Events Rain    
T = Trace of Precipitation, MM = Missing Value Source: NWS Daily Summary

Daily Weather History Graph

Daily Weather History Graph

Search for Another Location

Airport or City:

Trip Planner

Search our weather history database for the weather conditions in past years. The results will help you decide how hot, cold, wet, or windy it might be!

Date:

Astronomy

Oct. 28, 2011 Rise Set
Actual Time 7:23 AM EDT 6:07 PM EDT
Civil Twilight 6:56 AM EDT 6:34 PM EDT
Nautical Twilight 6:25 AM EDT 7:05 PM EDT
Astronomical Twilight 5:54 AM EDT 7:36 PM EDT
Moon 9:34 AM EDT (10/28) 7:30 PM EDT (10/28)
Length of Visible Light 11h 37m
Length of Day
10h 43m
Waxing Crescent, 5% of the Moon is Illuminated
Oct 28
Waxing Crescent
Nov 2
First Quarter
Nov 10
Full
Nov 18
Last Quarter
Nov 25
New

Hourly Weather History & Observations

Time (EDT) Temp. Windchill Dew Point Humidity Pressure Visibility Wind Dir Wind Speed Gust Speed Precip Events Conditions
12:11 AM 48.2 °F - 39.2 °F 71% 29.97 in 10.0 mi NNW 18.4 mph 25.3 mph N/A   Overcast
12:54 AM 46.9 °F - 37.9 °F 71% 30.01 in 10.0 mi NNW 16.1 mph 25.3 mph N/A   Overcast
1:54 AM 46.0 °F 40.6 °F 36.0 °F 68% 30.04 in 10.0 mi NNW 11.5 mph 19.6 mph N/A   Overcast
2:14 AM 46.4 °F 40.7 °F 35.6 °F 66% 30.04 in 10.0 mi North 12.7 mph 20.7 mph N/A   Overcast
2:54 AM 46.0 °F 41.0 °F 35.1 °F 66% 30.07 in 10.0 mi North 10.4 mph 18.4 mph N/A   Overcast
3:54 AM 45.0 °F 39.3 °F 34.0 °F 65% 30.09 in 10.0 mi North 11.5 mph 19.6 mph N/A   Overcast
4:54 AM 45.0 °F 39.7 °F 34.0 °F 65% 30.11 in 10.0 mi NNW 10.4 mph 19.6 mph N/A   Overcast
5:54 AM 44.1 °F 39.5 °F 33.1 °F 65% 30.14 in 10.0 mi North 8.1 mph - N/A   Overcast
6:54 AM 42.8 °F 38.0 °F 33.8 °F 70% 30.16 in 10.0 mi North 8.1 mph - N/A   Mostly Cloudy
7:54 AM 42.1 °F 37.7 °F 33.1 °F 70% 30.19 in 10.0 mi North 6.9 mph - N/A   Mostly Cloudy
8:54 AM 43.0 °F 38.2 °F 33.1 °F 68% 30.21 in 10.0 mi North 8.1 mph - N/A   Overcast
9:54 AM 45.0 °F 39.7 °F 33.1 °F 63% 30.21 in 10.0 mi NNE 10.4 mph - N/A   Overcast
10:54 AM 46.4 °F 42.4 °F 28.4 °F 50% 30.22 in 10.0 mi NNE 8.1 mph 18.4 mph N/A   Overcast
11:54 AM 46.9 °F - 30.0 °F 52% 30.23 in 10.0 mi NNE 11.5 mph - N/A   Overcast
12:54 PM 48.0 °F - 28.9 °F 48% 30.22 in 10.0 mi NNE 8.1 mph - N/A   Overcast
1:54 PM 48.9 °F - 30.9 °F 50% 30.21 in 10.0 mi NE 8.1 mph - N/A   Overcast
2:54 PM 50.0 °F - 33.8 °F 54% 30.21 in 10.0 mi NNE 9.2 mph - N/A   Overcast
3:54 PM 48.9 °F - 36.0 °F 61% 30.20 in 10.0 mi NNE 4.6 mph - N/A   Overcast
4:54 PM 50.0 °F - 37.0 °F 61% 30.20 in 10.0 mi NE 5.8 mph - N/A   Overcast
5:54 PM 48.9 °F - 36.0 °F 61% 30.21 in 10.0 mi NNE 4.6 mph - N/A   Overcast
6:54 PM 48.0 °F - 36.0 °F 63% 30.21 in 10.0 mi North 3.5 mph - N/A   Overcast
7:54 PM 48.0 °F - 37.0 °F 66% 30.20 in 10.0 mi North 6.9 mph - N/A   Overcast
8:54 PM 46.4 °F 42.9 °F 39.2 °F 76% 30.19 in 10.0 mi North 6.9 mph - N/A Rain Light Rain
9:54 PM 46.0 °F 41.4 °F 41.0 °F 83% 30.18 in 10.0 mi NNE 9.2 mph - 0.01 in   Overcast
10:54 PM 46.0 °F 41.4 °F 41.0 °F 83% 30.17 in 10.0 mi North 9.2 mph - 0.01 in Rain Light Rain
11:54 PM 45.0 °F 39.7 °F 41.0 °F 86% 30.14 in 10.0 mi NNE 10.4 mph - 0.01 in Rain Light Rain